Location: Larne
(54.8508°N, 5.8183°W)
Time: 13:09:31
(UTC+01:00)

ISS - Pass Details

Date: 28 September 2021
Orbit: 417 x 423 km, 51.6° (Epoch: 16 October)

Event Time Altitude Azimuth Distance (km) Brightness Sun altitude
Rises 19:54:11 0° 265° (W) 2,364 2.1 -7.7°
Reaches altitude 10° 19:56:19 10° 260° (W) 1,500 0.5 -8.0°
Maximum altitude 19:59:35 47° 185° (S) 563 -3.1 -8.5°
Enters shadow 20:02:31 12° 112° (ESE) 1,380 -1.8 -8.9°
